Regional Weather Roundup
Issued by NWS

Home | Current Version | Previous Version | Text Only | Print | Product List | Glossary Off
Versions: 1 2 3 4 5 6 7 8 9 10 11 12 13 14 15 16 17 18 19 20 21 22 23 24 25 26 27 28 29 30 31 32 33 34 35 36 37 38 39 40 41 42 43 44 45 46 47 48 49 50

000
ASUS43 KDTX 011410
RWRMI
MICHIGAN HOURLY REGIONAL WEATHER ROUNDUP
NATIONAL WEATHER SERVICE DETROIT/PONTIAC MI
1000 AM EDT WED JUL 01 2015

NOTE: "FAIR" INDICATES FEW OR NO CLOUDS BELOW 12,000 FEET WITH NO
SIGNIFICANT WEATHER AND/OR OBSTRUCTION TO VISIBILITY.

MIZ047>049-052>055-059>063-066>070-074>076-081>083-011500-
SOUTHEAST LOWER MICHIGAN

CITY           SKY/WX    TMP DP  RH WIND       PRES   REMARKS
ADRIAN         CLOUDY    64  57  77 NW8       29.91R
ALMA           CLOUDY    58  56  91 NW7       29.91R
ANN ARBOR      CLOUDY    64  59  83 NW7       29.90R
BAD AXE        CLOUDY    61  59  94 NW8       29.87S
CARO           CLOUDY    59  57  95 W6        29.88S FOG
DETROIT CITY   MOSUNNY   67  58  72 NW6       29.88R
DETROIT        CLOUDY    65  60  84 W10       29.89R
FLINT          CLOUDY    62  56  80 NW7       29.90R
GROSSE ILE     CLOUDY    68  63  83 W6        29.87R
HILLSDALE      CLOUDY    60  60  99 NW9       29.92F
HOWELL         CLOUDY    61  59  94 W7        29.91R

CITY           SKY/WX    TMP DP  RH WIND       PRES   REMARKS
JACKSON        CLOUDY    60  57  89 NW7       29.92R
LAMBERTVILLE   CLOUDY    66  60  81 W7        29.90S
LANSING        CLOUDY    58  55  90 W9        29.92R
LAPEER         CLOUDY    58  57  95 NW7       29.88S FOG
MASON          CLOUDY    57  56  95 W3        29.91S
MONROE         PTSUNNY   66  61  84 W10       29.88S
MT. CLEMENS    PTSUNNY   67  60  79 NW6       29.85S
PONTIAC        CLOUDY    60  59  96 W12       29.88R FOG
PORT HOPE        N/A     60  58  92 CALM      29.85R
PORT HURON     CLOUDY    63  59  88 NW5       29.87R
TRI CITIES     CLOUDY    60  54  80 NW8       29.91R
MIDLAND        CLOUDY    60  54  82 NW6       29.89S
TROY           CLOUDY    66  60  80 W7        29.90R
SAGINAW HB     CLOUDY    59  55  88 W6        29.89R
$$
MIZ043>046-050>051-056>058-064>065-071>073-077>080-011500-
SOUTHWEST LOWER MICHIGAN

CITY           SKY/WX    TMP DP  RH WIND       PRES   REMARKS
BATTLE CREEK   CLOUDY    60  55  83 W8        29.93S
BENTON HARBOR  PTSUNNY   60  52  74 VRB6      29.95F
BIG RAPIDS     PTSUNNY   59  49  70 W5        29.91F
COLDWATER      CLOUDY    59  56  91 W7        29.93S
FREMONT        CLOUDY    57  51  79 NW8       29.94R
HOLLAND        PTSUNNY   61  50  67 NW6       29.95S
GRAND RAPIDS   CLOUDY    57  53  86 W8        29.93S
IONIA          CLOUDY    58  54  88 NW6       29.91S
KALAMAZOO      CLOUDY    59  52  77 N8        29.94S
LUDINGTON      CLOUDY    53  50  87 N10G17    29.95S
MARSHALL       CLOUDY    59  55  86 W8        29.92S
MOUNT PLEASANT CLOUDY    57  53  86 W6        29.90R
MUSKEGON       CLOUDY    59  51  75 W9        29.94S
SOUTH HAVEN    PTSUNNY   58  52  78 N9        29.94F
$$
MIZ016>042-011500-
NORTHERN LOWER MICHIGAN

CITY           SKY/WX    TMP DP  RH WIND       PRES   REMARKS
ALPENA         CLOUDY    57  55  93 NW7       29.88R
BEAVER ISLAND  CLOUDY    51  48  90 NW9       29.93S
BELLAIRE       CLOUDY    55  51  89 NW6       29.93R FOG
CADILLAC       CLOUDY    53  49  86 W6        29.93R
CHARLEVOIX     CLOUDY    53  53  98 NW6       29.95S
FRANKFORT      CLOUDY    53  47  79 N8        29.95R HAZE
GAYLORD        CLOUDY    52  52 100 W5        29.91R FOG
GRAYLING       CLOUDY    53  51  90 W9        29.92R FOG
HARBOR SPRINGS CLOUDY    56  54  92 CALM      29.91R
HOUGHTON LAKE  CLOUDY    53  51  93 NW8       29.92R
MANISTEE       CLOUDY    52  45  76 N10G17    29.96R
OSCODA         CLOUDY    62  56  82 NW8       29.86S
PELLSTON       CLOUDY    56  53  90 NW8       29.91R
ROGERS CITY    CLOUDY    56  55  97 N7        29.90R FOG
TRAVERSE CITY  DRIZZLE   53  49  86 NW7       29.93R
$$
MIZ007>008-015-011500-
EASTERN UPPER MICHIGAN

CITY           SKY/WX    TMP DP  RH WIND       PRES   REMARKS
KINROSS        CLOUDY    55  52  88 N8        29.90S
MACKINAC ISLAN CLOUDY    56  55  99 NW6       29.90R
NEWBERRY       CLOUDY    47  46  98 NW6       29.94S FOG
S. S. MARIE    CLOUDY    56  49  77 NE3       29.90S
MUNISING         N/A     48  44  86 NW15      29.99R
$$
MIZ004>006-011>014-085-011500-
CENTRAL UPPER MICHIGAN

CITY           SKY/WX    TMP DP  RH WIND       PRES   REMARKS
MANISTIQUE     CLOUDY    51  45  80 N12       29.95R
ESCANABA       CLOUDY   N/A N/A N/A N9G16     29.97R
MENOMINEE      CLOUDY    52  43  71 N7        29.98S
SAWYER-GWINN   PTSUNNY   50  43  76 N17       30.00R
$$
MIZ001>003-009>011-084-011500-
WESTERN UPPER MICHIGAN

CITY           SKY/WX    TMP DP  RH WIND       PRES   REMARKS
IRON MOUNTAIN  SUNNY     55  44  66 N8        29.99R
HOUGHTON       SUNNY     58  43  57 NW6       30.03R
COPPER HARBOR    N/A     53  45  74 N6        30.03R
IRONWOOD       SUNNY     55  48  76 CALM      30.01S
$$

ABBREVIATIONS USED IN REMARKS
   TC - TEMPERATURE IN CELSIUS
  WCI - WIND CHILL INDEX
   HX - HEAT INDEX
  VSB - VISIBILITY



USA.gov is the U.S. government's official web portal to all federal, state and local government web resources and services.